ENGLEBRIGHT (USACE) (ENG)

Elevation: 551' · YUBA R basin · Operator: US Army Corps of Engineers

Provisional data, subject to change.
Query executed Tuesday at 23:51:49   clock

Select a sensor type for a plot of data.
Note: Reservoir Flows are daily averages.

Earlier

Date RES ELE    STORAGE    RES CHG    OUTFLOW    INFLOW    PPT INC   
 FEET   AF   AF   CFS   CFS   INCHES  
08/03/2014 523.29 66988 -895 -- 1026 0.00
08/04/2014 521.25 65394 -1594 -- 693 0.00
08/05/2014 521.68 65732 318 -- 1674 0.00
08/06/2014 521.27 65410 -302 -- 1340 0.01
08/07/2014 521.10 65278 -132 -- 1413 0.00
08/08/2014 520.79 65039 -239 -- 1353 0.00
08/09/2014 519.77 64257 -782 -- 1077 0.00
08/10/2014 518.07 62969 -1288 -- 814 0.00
08/11/2014 521.05 65240 2271 -- 2602 0.01
08/12/2014 520.22 64601 -647 -- 1127 0.00
08/13/2014 518.88 63580 -1013 -- 916 0.00
08/14/2014 520.69 64962 1382 -- 2132 0.00
08/15/2014 521.58 65650 688 -- 1803 0.00
08/16/2014 522.20 66133 483 -- 1682 0.00
08/17/2014 522.48 66352 219 -- 1528 0.00
08/18/2014 524.65 68066 1714 -- 2236 0.00
08/19/2014 523.23 66940 -1126 -- 759 0.00
08/20/2014 522.01 65985 -955 -- 796 0.00
08/21/2014 521.54 65619 -366 -- 1031 0.00
08/22/2014 521.10 65278 -341 -- 1030 0.00
08/23/2014 520.01 64440 -838 -- 784 0.00
08/24/2014 519.69 64196 -244 -- 1078 0.00
08/25/2014 519.63 64150 -46 -- 1175 0.00
08/26/2014 520.92 65139 989 -- 1694 0.00
08/27/2014 522.46 66336 1197 -- 1848 0.00
08/28/2014 522.38 66273 -- -- 1066 0.00
08/29/2014 521.34 65464 -809 -- 663 0.00
08/30/2014 520.01 64440 -1024 -- 466 0.00
08/31/2014 519.34 63929 -511 -- 625 0.00
09/01/2014 519.24 63853 -76 -- 1061 0.00
09/02/2014 -- -- -- -- -- --

Later | Latest

Warning! This data is preliminary and subject to revision.

Download Data Now Download Data Now | Show ENG Map | Plot ENG Data | 1 Month ENG Data | Real-Time ENG Data | ENG Info